OBJECT G, 63297

Orbit data source: Space-Track

You're viewing an uncataloged RSO

Recently launched and/or uncataloged RSOs may have evolving metadata. Metadata may include the following, but is not limited to: Owner, Manufacturer, Bus, Motor, and Mission.

OBJECT G, 63297 is a Chinese satellite in SSO that was launched on Mon, 17 Mar 2025 UTC via a GUSHENXING 1 launch vehicle from the Jiuquan Satellite Launch Center, China (JSC). Unknown objects in Earth's orbit typically refer to objects detected orbiting the Earth but have not yet been identified or cataloged. These objects could be anything from previously untracked satellites, spent rocket stages, debris from satellite collisions, or even natural meteoroids temporarily captured by Earth's gravity.

Loading next visibility...
Identifier
63297, 2025-055G
Orbit
SSO
Country
Flag of CNCN / PRC
Related business
None
Manufacturer
Unknown
Mission
Operational Commercial Imaging
Bus & Motor
Unknown
Mass
Unknown
Launch date (UTC)
2025-03-17 (1 year ago)
Launch vehicle
GUSHENXING 1
Launch site
Jiuquan Satellite Launch Center, China (JSC)
Object type
Unknown
Shape & HBR
Box + 3 Pan, 3.0 m
Radar Cross Section
3.533 m², Medium (>0.1 m² and < 1m²)

Expand to show TLE details & history
Last TLE update: 6 hours ago

TLE from 6 hours ago
0 OBJECT G
1 63297U 25055G   26254.96859275  .00016736  00000-0  61646-3 0  9993
2 63297  97.6585  40.2443 0007469 205.2337 154.8538 15.27885326 82476
Epoch: 2026-09-11T23:14Z
TLE epoch observation values (Epoch: 2026-09-11T23:14:46.413Z)
Latitude
-0.00001°
Longitude
60.56658°
Altitude
489.869 km
Speed
7.617 km/s
True Right ascension
02h 40m 58s
True Declination
0° 00' 00"
Sunlit
Object was in full shadow at epoch
Visualization orbit readout
Latitude
Unknown
Longitude
Unknown
Altitude
Unknown
Speed
Unknown
Apparent Right ascension
Unknown
Apparent Declination
Unknown
Sunlit
N/A
Visualization observer readout
Local Sidereal Time
22:08:49
Azimuth
Unknown
Elevation
Unknown
Doppler factor
Unknown
Orbital elements
Apogee altitude
484.223 km
Perigee altitude
473.98 km
Semi-major axis
6,857.238 km
Eccentricity
0.00075
Inclination
97.6585°
RAAN
40.2443°
Arg. of periapsis
205.2337°
True anomaly
154.89014°
Mean anomaly
154.8538°
Eccentric anomaly
154.87197°
Mean motion
3.82225 °/min
Orbital period
94.19 mins
BSTAR
0.00061646
Loading maneuver chart data...
Computing Atmospheric mass density...
Loading historical data...
Loading historical data...
Loading historical data...
Loading historical data...
Loading historical data...
Loading historical data...
Loading historical data...

Documentation

Showing up to 5 results
|